Voltar ao catálogo

LEMUR 2 JK0903EM1407

AtivoCiênciaSSO
NORAD 58336·PAYLOAD·🇺🇸 United States

Lançado Nov 11, 2023 de Vandenberg Space Force Base

Loading…

Próximas Passagens (próximas 24 horas)

TLE

AtualizadoSource: Space-Track

Época: Sep 14, 2026, 04:57 UTC

1 58336U 23174CJ  26257.20688292  .00023428  00000-0  33712-3 0  9999
2 58336  97.3899 350.4601 0004844 143.5420 216.6166 15.56048478159551

Acompanhe LEMUR 2 JK0903EM1407 em tempo real com AllMySat

Download on the App Store